User: anonymous   Login
Location: Peebles
(55.6412°N, 3.1714°W)
Time: 04:03:07
(UTC+00:00)
Language:

Sich 1 Rocket - Orbit

View from above orbital plane
View from above orbital plane
View from above satellite
View from above satellite

Ground track
Ground track

The orbit data is extracted from the following two-line orbital elements,

1 23659U 95046C   21333.70477598  .00000093  00000-0  96418-5 0  9993
2 23659  82.5319 236.1033 0024555 315.7314  74.1223 14.78402017414538
Epoch (UTC): 29 November 2021 16:54:52
Eccentricity: 0.0024555
inclination: 82.5319°
perigee height: 617 km
apogee height: 651 km
right ascension of ascending node: 236.1033°
argument of perigee: 315.7314°
revolutions per day: 14.78402017
mean anomaly at epoch: 74.1223°
orbit number at epoch: 41453

The dashed part of the orbit path shows where the satellite is in the earth's shadow,  

DLR